Miscellaneous Local Product
Issued by NWS North Platte, NE

Home | Current Version | Previous Version | Text Only | Print | Product List | Glossary On
Versions: 1 2 3 4 5 6 7 8 9 10 11 12 13 14 15 16 17 18 19 20 21 22 23 24 25 26 27 28 29 30 31 32 33 34 35 36 37 38 39 40 41 42 43 44 45 46 47 48 49 50
000
AXUS43 KLBF 020710
MISLBF


WESTERN AND NORTH CENTRAL NEBRASKA HOURLY WEATHER ROUNDUP
NATIONAL WEATHER SERVICE NORTH PLATTE NE
200 AM CDT TUE SEP 02 2014

***STATIONS NOT REPORTING VARIABLES SUCH AS SKY/WEATHER OR
PRESSURE ARE PROVIDED BY THE NEBRASKA DEPARTMENT OF
ROADS...RAWS...AND APRS NETWORKS...AND ARE NOT UNDER
NATIONAL WEATHER SERVICE QUALITY CONTROL***

...OBSERVATIONS IN AND NEAR THE EASTERN PANHANDLE OF NEBRASKA...

CITY           SKY/WX    TMP DP  RH WIND       PRES   REMARKS
PINE RIDGE     CLEAR     43  42  97 MISG      30.03F
CHADRON        CLEAR     46  44  93 SW9       30.04S
ALLIANCE       CLEAR     46  43  89 CALM      30.07S
SIDNEY         PTCLDY    48  45  89 S6        30.12R
WHITECLAY        N/A     43  42  96 E6          N/A
RUSHVILLE        N/A     43  42  96 SW6         N/A
GORDON           N/A     48  48  99 NE71        N/A
CRESCENT LAKE    N/A     49  47  93 CALM        N/A
LISCO            N/A     49  45  85 CALM        N/A
BIG SPRINGS      N/A     56  53  90 CALM        N/A
$$

...OBSERVATIONS IN NORTH CENTRAL NEBRASKA...

CITY           SKY/WX    TMP DP  RH WIND       PRES   REMARKS
VALENTINE      CLEAR     52  50  93 W8        30.01S
THEDFORD       CLEAR     52  51  95 CALM      30.04F
AINSWORTH      CLEAR     52  52  98 SW8       30.01S
O`NEILL        CLEAR     55  55  99 W5        29.98F
ORD            CLEAR     53  52  96 NW6       29.99R
BROKEN BOW     CLEAR     55  52  89 CALM      30.02S
SPRINGVIEW       N/A     52  50  93 CALM        N/A
ROSE             N/A     54  54  99 S3          N/A
NEWPORT          N/A     52  52  99 W5          N/A
COMSTOCK         N/A     56  55  97 W6          N/A
CHAMBERS         N/A     56  55  95 W3          N/A
EWING            N/A     55  53  95 CALM        N/A
$$

...OBSERVATIONS IN SOUTHWEST NEBRASKA AND FAR NORTHEAST COLORADO...

CITY           SKY/WX    TMP DP  RH WIND       PRES   REMARKS
WRAY             N/A     57  55  94 NE6       30.08S
HOLYOKE        FAIR      54  50  87 NE5       30.08F
IMPERIAL       PTCLDY    57  52  83 SE3       30.06F
OGALLALA       PTCLDY    51  50  96 CALM      30.06F
NORTH PLATTE   PTCLDY    53  52  96 CALM      30.04S
MCCOOK         CLEAR     58  55  90 CALM      30.05R
LEXINGTON      PTCLDY    55  54  95 W3        30.03S
PAXTON           N/A     55  52  91 CALM        N/A
SUTHERLAND       N/A     49  47  92 CALM        N/A
BRADY            N/A     54  50  87 CALM        N/A
GOTHENBURG       N/A     58  53  82 W3          N/A
CALLAWAY         N/A     52  51  95 CALM        N/A
$$

...SOME WEATHER OBSERVATIONS FROM AROUND THE REGION...

CITY           SKY/WX    TMP DP  RH WIND       PRES   REMARKS
DENVER         PTCLDY    53  44  71 NE6       30.16R
LARAMIE        CLEAR     42  35  76 S8        30.20F
CHEYENNE       CLEAR     46  41  82 W7        30.17F
SCOTTSBLUFF    CLEAR     48  45  89 E5        30.08F
RAPID CITY     CLEAR     45  42  89 CALM      30.00S
PIERRE         CLEAR     56  52  86 W8        29.92S
WINNER         FAIR      55  51  86 SW8       29.97R
SIOUX FALLS    CLOUDY    62  55  77 W7        29.89R
OMAHA          MOCLDY    63  58  83 N3        29.95F
GRAND ISLAND   PTCLDY    56  52  86 W5        29.98F
KANSAS CITY    CLOUDY    68  67  96 NW6       29.93R FOG
WICHITA        MOCLDY    73  68  84 E8        29.88F THUNDER
HAYS           MOCLDY    66  61  82 NW3       29.98S
LIBERAL        MOCLDY    68  61  77 E12       29.98R
GOODLAND       CLEAR     62  56  80 N8G26     30.05R
$$



USA.gov is the U.S. government's official web portal to all federal, state and local government web resources and services.